Regional Weather Roundup
Issued by NWS Little Rock, AR

Home | Current Version | Previous Version | Text Only | Print | Product List | Glossary Off
Versions: 1 2 3 4 5 6 7 8 9 10 11 12 13 14 15 16 17 18 19 20 21 22 23 24 25 26 27 28 29 30 31 32 33 34 35 36 37 38 39 40 41 42 43 44 45 46 47 48 49 50

000
ASUS44 KLZK 010305
RWRLZK

WEATHER ROUNDUP FOR ARKANSAS
NATIONAL WEATHER SERVICE LITTLE ROCK AR
1000 PM CDT TUE MAR 31 2015

NOTE: "FAIR" INDICATES FEW OR NO CLOUDS BELOW 12,000 FEET WITH NO
SIGNIFICANT WEATHER AND/OR OBSTRUCTIONS TO VISIBILITY.

ARZ001-003-010-029-010400-
NORTHWEST ARKANSAS

CITY           SKY/WX    TMP DP  RH WIND       PRES   REMARKS
FAYETTEVILLE   CLEAR     56  52  86 S3        29.94R
FORT SMITH     PTCLDY    72  59  63 W3        29.90R
HARRISON       CLEAR     64  56  75 CALM      29.95R
BENTONVILLE    CLEAR     66  52  59 CALM      29.94R
ROGERS         CLEAR     66  53  63 NE6       29.95R
SILOAM SPGS    CLEAR     64  48  55 N5        29.95R
HIGHFILL       CLEAR     62  49  62 CALM      29.94R
$$

ARZ004-005-016-010400-
NORTH CENTRAL ARKANSAS

CITY           SKY/WX    TMP DP  RH WIND       PRES   REMARKS
BATESVILLE     PTCLDY    66  57  72 CALM      29.91S
FLIPPIN        PTCLDY    70  54  56 CALM      29.92R
MTN HOME       CLOUDY    70  53  54 CALM      29.92R
$$

ARZ040-041-010400-
WEST CENTRAL ARKANSAS

CITY           SKY/WX    TMP DP  RH WIND       PRES   REMARKS
MENA           MOCLDY    70  64  83 CALM      29.97S
MOUNT IDA      MOCLDY    66  61  84 CALM      29.94R
$$

ARZ009-017-025-026-028-010400-
NORTHEAST ARKANSAS

CITY           SKY/WX    TMP DP  RH WIND       PRES   REMARKS
CORNING          N/A     61  57  88 CALM      29.95R
JONESBORO      MOCLDY    62  56  80 NE13      29.93R
NEWPORT        TSTM      68  65  90 S9        29.91S
BLYTHEVILLE    CLOUDY    63  56  78 SE8       29.96S THUNDER
$$

ARZ022-023-033-042-044-010400-
CENTRAL ARKANSAS

CITY           SKY/WX    TMP DP  RH WIND       PRES   REMARKS
LITTLE ROCK    PTCLDY    68  60  75 S5        29.96R
N LITTLE ROCK  PTCLDY    68  64  84 SW9G17    29.96R
JACKSONVILLE   TSTM      69  62  79 SW13      29.93R
SEARCY         CLOUDY    71  64  78 SW6       29.93R
HOT SPRINGS    PTCLDY    67  61  81 CALM      29.97R
RUSSELLVILLE   CLEAR     69  62  78 SE5       29.92R
CLINTON        FAIR      59  59 100 CALM      29.94R FOG
$$

ARZ036-010400-
EAST ARKANSAS

CITY           SKY/WX    TMP DP  RH WIND       PRES   REMARKS
WEST MEMPHIS   PTCLDY    65  62  90 S5        29.91R
$$

ARZ050-053-066-070-073-010400-
SOUTHWEST ARKANSAS

CITY           SKY/WX    TMP DP  RH WIND       PRES   REMARKS
ARKADELPHIA    CLOUDY    69  66  90 SW3       29.97R
CAMDEN         CLEAR     63  59  88 CALM      29.97S
TEXARKANA      CLEAR     66  63  90 SE5       29.96R
EL DORADO      PTCLDY    63  61  93 CALM      29.97F
DE QUEEN       PTCLDY    62  61  96 N3        29.93S FOG
$$

ARZ056-057-069-010400-
SOUTHEAST ARKANSAS

CITY           SKY/WX    TMP DP  RH WIND       PRES   REMARKS
PINE BLUFF     FAIR      68  62  81 SW6       29.97R
STUTTGART      PTCLDY    66  61  82 SW7       29.97R
MONTICELLO     PTCLDY    69  62  78 CALM      29.97R

$$





USA.gov is the U.S. government's official web portal to all federal, state and local government web resources and services.